• Join FlightAware (Why Join?)
  • Login
  • US Flag GB Flag 
12:33 EDT


 

Airport Tracker/Info


-or-


 

Live Flight TrackerFlight Track Log ✈ CTL13 ✈ 17-Apr-2013 ✈ KBKL - KEYE

Flight Track Log - Related Links

Times and Time Zones

All times are in EDT time to prevent confusion due to time zone crossing. See the CTL13 flight status page for this flight to view local times or setup timezone preferences in your user account.

Time Position Orientation Groundspeed Altitude Reporting Facility
EDT Latitude Longitude Course Direction KTS MPH feet Rate Location/Type
18:50 41.5233 -81.6758 323° Northwest 117 135 1,000  Level Cleveland Center
18:51 41.5625 -81.7153 323° Northwest 168 193 2,200 960 Climbing Cleveland Center
18:52 41.5933 -81.7631 311° West 156 180 3,300 780 Climbing Cleveland Center
18:53 41.6008 -81.8244 279° West 150 173 4,000 300 Climbing Cleveland Center
18:54 41.5961 -81.8881 264° West 166 191 4,000  Level Cleveland Center
18:55 41.5914 -81.9353 262° West 166 191 4,000 120 Level Cleveland Center
18:56 41.5742 -81.9875 246° West 148 170 4,300 300 Climbing Cleveland Center
18:57 41.5525 -82.0453 243° Southwest 141 162 4,800 420 Climbing Cleveland Center
18:58 41.5331 -82.0894 240° Southwest 136 157 5,300 420 Climbing Cleveland Center
18:59 41.5139 -82.1306 238° Southwest 138 159 5,700 360 Climbing Cleveland Center
19:00 41.4967 -82.1744 242° Southwest 133 153 6,100 300 Climbing Cleveland Center
19:01 41.4772 -82.2183 239° Southwest 132 152 6,400 60 Climbing Cleveland Center
19:03 41.4524 -82.2842 243° Southwest  Level Estimated
19:10 41.3106 -82.6572 243° Southwest  Level Estimated
19:11 41.2903 -82.7104 243° Southwest  Level Estimated
19:12 41.2699 -82.7635 243° Southwest  Level Estimated
19:13 41.2495 -82.8166 243° Southwest  Level Estimated
19:14 41.2291 -82.8697 243° Southwest  Level Estimated
19:15 41.2086 -82.9227 243° Southwest  Level Estimated
19:16 41.1882 -82.9757 243° Southwest  Level Estimated
19:17 41.1677 -83.0286 243° Southwest  Level Estimated
19:18 41.1471 -83.0816 243° Southwest  Level Estimated
19:19 41.1266 -83.1345 243° Southwest  Level Estimated
19:20 41.1060 -83.1873 243° Southwest  Level Estimated
19:21 41.0854 -83.2401 243° Southwest  Level Estimated
19:22 41.0648 -83.2929 243° Southwest  Level Estimated
19:23 41.0442 -83.3457 243° Southwest  Level Estimated
19:24 41.0235 -83.3984 243° Southwest  Level Estimated
19:24 41.0667 -83.1822 242° Southwest 136 157 8,000  Level Indianapolis Center
19:25 41.0028 -83.4511 243° Southwest  Level Estimated
19:25 41.0469 -83.2250 239° Southwest 136 157 7,900  Level Indianapolis Center
19:26 40.9821 -83.5038 242° Southwest  Level Estimated
19:26 41.0275 -83.2731 242° Southwest 143 165 7,300  Level Indianapolis Center
19:27 40.9614 -83.5564 242° Southwest  Level Estimated
19:27 41.0044 -83.3239 239° Southwest 157 181 6,600  Level Indianapolis Center
19:28 40.9407 -83.6090 242° Southwest  Level Estimated
19:28 40.9794 -83.3858 242° Southwest 161 185 6,000  Level Indianapolis Center
19:29 40.9199 -83.6615 242° Southwest  Level Estimated
19:29 40.9586 -83.4331 240° Southwest 152 175 6,000  Level Indianapolis Center
19:30 40.9386 -83.4778 239° Southwest 143 165 6,000 -60 Level Indianapolis Center
19:31 40.9189 -83.5219 239° Southwest 138 159 5,900 -60 Descending Indianapolis Center
19:32 40.8986 -83.5658 239° Southwest 138 159 5,900  Level Indianapolis Center
19:33 40.8792 -83.6097 240° Southwest 138 159 6,000  Climbing Indianapolis Center
19:34 40.8583 -83.6531 238° Southwest 139 160 6,000  Level Indianapolis Center
19:35 40.8383 -83.6967 239° Southwest 138 159 6,000  Level Indianapolis Center
19:36 40.8181 -83.7397 238° Southwest 138 159 6,000  Level Indianapolis Center
19:37 40.7975 -83.7831 238° Southwest 138 159 6,000  Level Indianapolis Center
19:38 40.7761 -83.8267 237° Southwest 139 160 6,000  Level Indianapolis Center
19:39 40.7528 -83.8781 239° Southwest 139 160 6,000  Level Indianapolis Center
19:40 40.7322 -83.9214 238° Southwest 139 160 6,000  Level Indianapolis Center
19:41 40.7142 -83.9658 242° Southwest 137 158 6,000  Level Indianapolis Center
19:42 40.6972 -84.0122 244° Southwest 139 160 6,000  Level Indianapolis Center
19:43 40.6808 -84.0589 245° Southwest 138 159 6,000  Level Indianapolis Center
19:44 40.6717 -84.0844 245° Southwest 138 159 6,000  Level Indianapolis Center
19:44 40.6650 -84.1042 246° West 138 159 6,000  Level Indianapolis Center
19:45 40.6503 -84.1422 243° Southwest 137 158 6,000  Level Indianapolis Center
19:45 40.6494 -84.1489 261° West 136 157 6,000  Level Indianapolis Center
19:46 40.6322 -84.1892 241° Southwest 136 157 6,000  Level Indianapolis Center
19:47 40.6139 -84.2336 241° Southwest 137 158 6,000  Level Indianapolis Center
19:48 40.5942 -84.2722 236° Southwest 137 158 6,000  Level Indianapolis Center
19:48 40.5914 -84.2806 246° West 137 158 6,000  Level Indianapolis Center
19:49 40.5722 -84.3103 230° Southwest 134 154 6,000  Level Indianapolis Center
19:49 40.5636 -84.3258 234° Southwest 136 157 6,000  Level Indianapolis Center
19:50 40.5458 -84.3536 230° Southwest 135 155 6,000  Level Indianapolis Center
19:50 40.5406 -84.3650 239° Southwest 135 155 6,000  Level Indianapolis Center
19:51 40.5239 -84.3917 231° Southwest 136 157 6,000  Level Indianapolis Center
19:51 40.5178 -84.4050 239° Southwest 135 155 6,000  Level Indianapolis Center
19:52 40.5019 -84.4300 230° Southwest 133 153 6,000  Level Indianapolis Center
19:52 40.4956 -84.4439 239° Southwest 134 154 6,000  Level Indianapolis Center
19:53 40.4800 -84.4708 233° Southwest 131 151 6,000 60 Level Indianapolis Center
19:54 40.4731 -84.4831 233° Southwest 134 154 6,100 60 Climbing Indianapolis Center
19:54 40.4581 -84.5089 233° Southwest 133 153 6,100 -120 Level Indianapolis Center
19:55 40.4508 -84.5222 235° Southwest 133 153 6,000 -120 Descending Indianapolis Center
19:55 40.4361 -84.5469 232° Southwest 134 154 6,000  Level Indianapolis Center
19:56 40.4281 -84.5606 232° Southwest 133 153 6,000  Level Indianapolis Center
19:56 40.4117 -84.5875 231° Southwest 134 154 6,000  Level Indianapolis Center
19:57 40.4056 -84.5975 231° Southwest 131 151 6,000  Level Indianapolis Center
19:57 40.3894 -84.6283 236° Southwest 134 154 6,000 60 Level Indianapolis Center
19:58 40.3836 -84.6381 232° Southwest 133 153 6,100  Climbing Indianapolis Center
19:58 40.3675 -84.6664 233° Southwest 131 151 6,000 -120 Descending Indianapolis Center
19:59 40.3608 -84.6772 231° Southwest 133 153 6,000  Level Indianapolis Center
19:59 40.3436 -84.7014 227° Southwest 133 153 6,000  Level Indianapolis Center
20:00 40.3344 -84.7214 239° Southwest 132 152 6,000  Level Indianapolis Center
20:00 40.3214 -84.7419 230° Southwest 136 157 6,000  Level Indianapolis Center
20:01 40.3114 -84.7617 236° Southwest 134 154 6,000  Level Indianapolis Center
20:01 40.2992 -84.7828 233° Southwest 137 158 6,000  Level Indianapolis Center
20:02 40.2881 -84.8025 234° Southwest 136 157 6,000  Level Indianapolis Center
20:02 40.2747 -84.8258 233° Southwest 136 157 6,000  Level Indianapolis Center
20:03 40.2656 -84.8433 236° Southwest 137 158 6,000  Level Indianapolis Center
20:03 40.2525 -84.8636 230° Southwest 135 155 6,000  Level Indianapolis Center
20:04 40.2425 -84.8814 234° Southwest 136 157 6,000  Level Indianapolis Center
20:04 40.2303 -84.9042 235° Southwest 138 159 6,000  Level Indianapolis Center
20:05 40.2189 -84.9225 231° Southwest 136 157 6,000  Level Indianapolis Center
20:05 40.2058 -84.9444 232° Southwest 138 159 6,000  Level Indianapolis Center
20:06 40.1947 -84.9636 233° Southwest 139 160 6,000 60 Level Indianapolis Center
20:06 40.1836 -84.9850 236° Southwest 137 158 6,100 60 Climbing Indianapolis Center
20:07 40.1717 -85.0033 230° Southwest 138 159 6,100  Level Indianapolis Center
20:07 40.1614 -85.0228 235° Southwest 134 154 6,100  Level Indianapolis Center
20:08 40.1494 -85.0442 234° Southwest 138 159 6,100  Level Indianapolis Center
20:09 40.1258 -85.0814 230° Southwest 135 155 6,100 60 Level Indianapolis Center
20:09 40.1056 -85.0883 195° South 135 155 6,200  Climbing Indianapolis Center
20:10 40.0889 -85.0944 196° South 138 159 6,100 -120 Descending Indianapolis Center
20:10 40.0686 -85.1022 196° South 136 157 6,100  Level Indianapolis Center
20:11 40.0467 -85.1092 194° South 136 157 6,100 60 Level Indianapolis Center
20:12 40.0161 -85.1317 209° Southwest 140 161 6,200  Climbing Indianapolis Center
20:13 40.0094 -85.1819 260° West 140 161 6,100 -60 Descending Indianapolis Center
20:14 40.0025 -85.2322 260° West 141 162 6,100 -60 Level Indianapolis Center
20:15 39.9969 -85.2819 262° West 139 160 6,000 -300 Descending Indianapolis Center
20:16 39.9886 -85.3336 258° West 141 162 5,600 -540 Descending Indianapolis Center
20:17 39.9808 -85.3917 260° West 152 175 5,000 -420 Descending Indianapolis Center
20:18 39.9731 -85.4453 259° West 153 176 4,800 -420 Descending Indianapolis Center
20:20 39.9500 -85.5333 251° West 148 170 4,000 -360 Descending Indianapolis TRACON
20:21 39.9500 -85.5833 270° West 139 160 4,000  Level Indianapolis TRACON
20:22 39.9333 -85.6333 247° West 136 157 4,000  Level Indianapolis TRACON
20:23 39.9333 -85.6833 270° West 133 153 4,000 -60 Level Indianapolis TRACON
20:24 39.9333 -85.7333 270° West 133 153 3,900  Descending Indianapolis TRACON
20:25 39.9167 -85.7667 237° Southwest 132 152 4,000  Climbing Indianapolis TRACON
20:26 39.9167 -85.8167 270° West 131 151 3,900 -420 Descending Indianapolis TRACON
20:27 39.9000 -85.8667 247° West 146 168 3,300 -660 Descending Indianapolis TRACON
20:28 39.8833 -85.9167 247° West 154 177 2,700 -600 Descending Indianapolis TRACON
20:30 39.8833 -86.0081 270° West  Level FlightAware Approximate
20:37 39.8308 -86.2944 251° West  Level Estimated
20:38 39.8308 -86.2944 57° Northeast  Level Estimated
20:39 39.8308 -86.2944 90° East  Level Estimated